Weather History for Winchester, TN

Change the Weather History Date:

Thursday, March 14, 2013

  Actual Average (KTHA) Record (KTHA)
Temperature  
Mean Temperature 36 °F -  
Max Temperature 51 °F 62 °F 64 °F (2014)
Min Temperature 21 °F 37 °F 19 °F (2013)
Degree Days  
Heating Degree Days 29    
Moisture  
Dew Point 21 °F    
Average Humidity 59    
Maximum Humidity 100    
Minimum Humidity 22    
Precipitation  
Precipitation 0.00 in - - ()
Sea Level Pressure  
Sea Level Pressure 30.34 in    
Wind  
Wind Speed 4 mph (North)    
Max Wind Speed 9 mph    
Max Gust Speed -    
Visibility 10 miles    
Events      
Averages and records for this station are not official NWS values.
T = Trace of Precipitation, MM = Missing Value Source: NWS Daily Summary

Daily Weather History Graph

Daily Weather History Graph

Search for Another Location

Airport:

Trip Planner

Search our weather history database for the weather conditions in past years. The results will help you decide how hot, cold, wet, or windy it might be!

Date:

Astronomy

Mar. 14, 2013 Rise Set
Actual Time 7:55 AM EDT 7:51 PM EDT
Civil Twilight 7:30 AM EDT 8:16 PM EDT
Nautical Twilight 7:01 AM EDT 8:46 PM EDT
Astronomical Twilight 6:31 AM EDT 9:15 PM EDT
Moon 9:17 AM EDT (3/14) 10:57 PM EDT (3/14)
Length of Visible Light 12h 45m
Length of Day
11h 55m
Waxing Crescent, 9% of the Moon is Illuminated
Mar 14
Waxing Crescent
Mar 19
First Quarter
Mar 27
Full
Apr 3
Last Quarter
Apr 10
New

Hourly Weather History & Observations

Time (EDT) Temp. Windchill Dew Point Humidity Pressure Visibility Wind Dir Wind Speed Gust Speed Precip Events Conditions
12:15 AM 30.2 °F 22.6 °F 19.4 °F 64% 30.36 in 10.0 mi North 8.1 mph - N/A   Clear
12:35 AM 30.2 °F 24.3 °F 19.4 °F 64% 30.36 in 10.0 mi North 5.8 mph - N/A   Clear
12:55 AM 28.4 °F 21.2 °F 19.4 °F 69% 30.37 in 10.0 mi North 6.9 mph - N/A   Clear
1:35 AM 28.4 °F 23.3 °F 19.4 °F 69% 30.37 in 10.0 mi North 4.6 mph - N/A   Clear
2:15 AM 28.4 °F 23.3 °F 19.4 °F 69% 30.37 in 10.0 mi North 4.6 mph - N/A   Clear
2:35 AM 28.4 °F 21.2 °F 19.4 °F 69% 30.38 in 10.0 mi North 6.9 mph - N/A   Clear
2:55 AM 28.4 °F 23.3 °F 19.4 °F 69% 30.38 in 10.0 mi NNW 4.6 mph - N/A   Clear
3:15 AM 28.4 °F 24.6 °F 19.4 °F 69% 30.39 in 10.0 mi NW 3.5 mph - N/A   Clear
3:35 AM 26.6 °F - 19.4 °F 74% 30.39 in 10.0 mi Calm Calm - N/A   Clear
3:55 AM 26.6 °F 22.6 °F 19.4 °F 74% 30.38 in 10.0 mi NW 3.5 mph - N/A   Clear
4:15 AM 26.6 °F 22.6 °F 17.6 °F 69% 30.38 in 10.0 mi North 3.5 mph - N/A   Clear
4:35 AM 26.6 °F - 19.4 °F 74% 30.37 in 10.0 mi Calm Calm - N/A   Clear
4:55 AM 26.6 °F 22.6 °F 17.6 °F 69% 30.37 in 10.0 mi NNW 3.5 mph - N/A   Clear
5:15 AM 24.8 °F 20.5 °F 17.6 °F 74% 30.37 in 10.0 mi North 3.5 mph - N/A   Clear
5:35 AM 24.8 °F 20.5 °F 19.4 °F 80% 30.38 in 10.0 mi NNW 3.5 mph - N/A   Clear
5:55 AM 24.8 °F 20.5 °F 17.6 °F 74% 30.38 in 10.0 mi NNW 3.5 mph - N/A   Clear
6:15 AM 24.8 °F - 17.6 °F 74% 30.38 in 10.0 mi Calm Calm - N/A   Clear
6:35 AM 24.8 °F - 17.6 °F 74% 30.39 in 10.0 mi Calm Calm - N/A   Clear
6:55 AM 23.0 °F - 17.6 °F 80% 30.40 in 10.0 mi Calm Calm - N/A   Clear
7:15 AM 21.2 °F - 17.6 °F 86% 30.40 in 10.0 mi Calm Calm - N/A   Clear
7:35 AM 21.2 °F - 17.6 °F 86% 30.40 in 10.0 mi Calm Calm - N/A   Clear
7:55 AM 21.2 °F - 17.6 °F 86% 30.38 in 10.0 mi Calm Calm - N/A   Clear
8:15 AM 21.2 °F - 17.6 °F 86% 30.39 in 10.0 mi Calm Calm - N/A   Clear
8:35 AM 24.8 °F - 19.4 °F 80% 30.40 in 10.0 mi Calm Calm - N/A   Clear
8:55 AM 24.8 °F - 19.4 °F 80% 30.40 in 10.0 mi Calm Calm - N/A   Clear
9:15 AM 28.4 °F - 21.2 °F 74% 30.41 in 10.0 mi Calm Calm - N/A   Clear
9:35 AM 28.4 °F - 19.4 °F 69% 30.42 in 10.0 mi Calm Calm - N/A   Clear
9:55 AM 28.4 °F - 19.4 °F 69% 30.42 in 10.0 mi Calm Calm - N/A   Clear
10:15 AM 30.2 °F 25.4 °F 19.4 °F 64% 30.42 in 10.0 mi NE 4.6 mph - N/A   Clear
10:35 AM 30.2 °F - 19.4 °F 64% 30.41 in 10.0 mi Calm Calm - N/A   Clear
10:55 AM 33.8 °F 30.8 °F 17.6 °F 52% 30.41 in 10.0 mi East 3.5 mph - N/A   Clear
11:15 AM 33.8 °F 27.7 °F 17.6 °F 52% 30.41 in 10.0 mi Variable 6.9 mph - N/A   Clear
11:35 AM 35.6 °F 29.9 °F 17.6 °F 48% 30.41 in 10.0 mi Variable 6.9 mph - N/A   Clear
11:55 AM 35.6 °F 32.8 °F 15.8 °F 44% 30.40 in 10.0 mi Variable 3.5 mph - N/A   Clear
12:15 PM 35.6 °F 31.7 °F 15.8 °F 44% 30.40 in 10.0 mi Variable 4.6 mph - N/A   Clear
12:35 PM 37.4 °F 33.8 °F 17.6 °F 45% 30.39 in 10.0 mi Variable 4.6 mph - N/A   Clear
1:15 PM 41.0 °F 39.0 °F 15.8 °F 36% 30.38 in 10.0 mi Variable 3.5 mph - N/A   Clear
1:35 PM 42.8 °F 40.1 °F 15.8 °F 34% 30.38 in 10.0 mi Variable 4.6 mph - N/A   Clear
1:55 PM 44.6 °F 41.4 °F 17.6 °F 34% 30.36 in 10.0 mi Variable 5.8 mph - N/A   Clear
2:15 PM 44.6 °F 42.2 °F 15.8 °F 31% 30.36 in 10.0 mi NW 4.6 mph - N/A   Clear
2:35 PM 44.6 °F 40.7 °F 17.6 °F 34% 30.35 in 10.0 mi Variable 6.9 mph - N/A   Partly Cloudy
2:55 PM 46.4 °F 43.5 °F 17.6 °F 32% 30.34 in 10.0 mi SW 5.8 mph - N/A   Partly Cloudy
3:15 PM 46.4 °F 45.2 °F 15.8 °F 29% 30.34 in 10.0 mi Variable 3.5 mph - N/A   Partly Cloudy
3:35 PM 48.2 °F - 17.6 °F 30% 30.31 in 10.0 mi Variable 5.8 mph - N/A   Partly Cloudy
3:55 PM 48.2 °F - 17.6 °F 30% 30.31 in 10.0 mi Calm Calm - N/A   Scattered Clouds
4:15 PM 48.2 °F - 17.6 °F 30% 30.30 in 10.0 mi Variable 3.5 mph - N/A   Mostly Cloudy
4:35 PM 50.0 °F - 17.6 °F 28% 30.29 in 10.0 mi NW 5.8 mph - N/A   Partly Cloudy
4:55 PM 51.8 °F - 19.4 °F 28% 30.28 in 10.0 mi Variable 4.6 mph - N/A   Clear
5:15 PM 51.8 °F - 14.0 °F 22% 30.29 in 10.0 mi WNW 8.1 mph - N/A   Scattered Clouds
5:35 PM 48.2 °F - 15.8 °F 27% 30.29 in 10.0 mi WNW 5.8 mph - N/A   Overcast
5:55 PM 48.2 °F - 15.8 °F 27% 30.29 in 10.0 mi West 5.8 mph - N/A   Mostly Cloudy
6:15 PM 48.2 °F - 17.6 °F 30% 30.29 in 10.0 mi Variable 3.5 mph - N/A   Scattered Clouds
6:35 PM 48.2 °F - 15.8 °F 27% 30.28 in 10.0 mi NNW 4.6 mph - N/A   Mostly Cloudy
6:55 PM 46.4 °F 44.3 °F 15.8 °F 29% 30.28 in 10.0 mi NNW 4.6 mph - N/A   Overcast
7:15 PM 46.4 °F 44.3 °F 17.6 °F 32% 30.27 in 10.0 mi North 4.6 mph - N/A   Overcast
7:35 PM 46.4 °F - 19.4 °F 34% 30.27 in 10.0 mi Calm Calm - N/A   Overcast
7:55 PM 46.4 °F 44.3 °F 21.2 °F 37% 30.27 in 10.0 mi NNE 4.6 mph - N/A   Overcast
8:15 PM 46.4 °F 42.9 °F 21.2 °F 37% 30.28 in 10.0 mi NNE 6.9 mph - N/A   Overcast
8:35 PM 44.6 °F 41.4 °F 26.6 °F 49% 30.28 in 10.0 mi NNW 5.8 mph - N/A   Overcast
8:55 PM 44.6 °F 40.7 °F 28.4 °F 53% 30.29 in 10.0 mi North 6.9 mph - N/A   Overcast
9:15 PM 41.0 °F - 33.8 °F 76% 30.28 in 6.0 mi Calm Calm - N/A   Overcast
9:35 PM 39.2 °F 37.0 °F 35.6 °F 87% 30.27 in 6.0 mi ESE 3.5 mph - N/A   Overcast
9:55 PM 39.2 °F 37.0 °F 35.6 °F 87% 30.28 in 6.0 mi ESE 3.5 mph - N/A   Mostly Cloudy
10:15 PM 39.2 °F 35.0 °F 35.6 °F 87% 30.26 in 5.0 mi SSE 5.8 mph - N/A   Mostly Cloudy
10:35 PM 37.4 °F 33.8 °F 35.6 °F 93% 30.25 in 6.0 mi SE 4.6 mph - N/A   Mostly Cloudy
10:55 PM 37.4 °F 33.8 °F 37.4 °F 100% 30.24 in 9.0 mi SE 4.6 mph - N/A   Mostly Cloudy
11:15 PM 37.4 °F 30.8 °F 37.4 °F 100% 30.24 in 10.0 mi East 9.2 mph - N/A   Overcast
11:35 PM 37.4 °F 32.1 °F 35.6 °F 93% 30.25 in 10.0 mi East 6.9 mph - N/A   Mostly Cloudy
11:55 PM 37.4 °F 32.8 °F 35.6 °F 93% 30.25 in 10.0 mi East 5.8 mph - N/A   Partly Cloudy